K9JM Weather Reports


time (UTC)temp
C
wind
direction
speed
KPH
gust
KPH
rain 1hr
cm
rain 24hr
cm
rain mn
cm
humidity
%
barometer
mb
20260903033017 17 0.0 0.0 0.00 0.00 0.00 67 1016.0
20260903031517 17 0.0 0.0 0.00 0.00 0.00 66 1016.0
20260903030017 17 0.0 0.0 0.00 0.00 0.00 65 1015.8
20260903024517 18 0.0 0.0 0.00 0.00 0.00 62 1015.9
20260903023017 18 0.0 3.2 0.00 0.00 0.00 61 1015.9
20260903021517 18 0.0 3.2 0.00 0.00 0.00 62 1016.1
20260903020017 18 0.0 1.6 0.00 0.00 0.00 62 1016.2
20260903014517 18 0.0 4.8 0.00 0.00 0.00 62 1016.2
20260903013037 19 0.0 4.8 0.00 0.00 0.00 61 1016.2
20260903011517 20 0.0 3.2 0.00 0.00 0.00 59 1016.4
20260903010017 20 113 1.6 6.4 0.00 0.00 0.00 58 1016.4
20260903004517 20 0.0 6.4 0.00 0.00 0.00 58 1016.4
20260903003017 20 0.0 6.4 0.00 0.00 0.00 58 1016.6
20260903001516 20 225 1.6 6.4 0.00 0.00 0.00 56 1016.6
20260903000016 20 135 1.6 4.8 0.00 0.00 0.00 59 1016.7
20260902234516 19 0.0 6.4 0.00 0.00 0.00 59 1016.6
20260902233017 20 0.0 4.8 0.00 0.00 0.00 60 1016.8
20260902231516 20 0.0 9.7 0.00 0.00 0.00 59 1016.9
20260902230017 20 135 1.6 6.4 0.00 0.00 0.00 59 1017.2
20260902224517 20 0.0 3.2 0.00 0.00 0.00 60 1017.3
20260902223017 21 0.0 4.8 0.00 0.00 0.00 58 1017.4
20260902221516 20 225 1.6 6.4 0.00 0.00 0.00 60 1017.4
20260902220016 20 135 1.6 8.0 0.00 0.00 0.00 61 1017.3
20260902214517 19 248 1.6 3.2 0.00 0.00 0.00 63 1017.4
20260902213016 19 225 1.6 6.4 0.00 0.00 0.00 63 1017.6
20260902211537 19 0.0 6.4 0.00 0.00 0.00 65 1017.6
20260902210016 18 0.0 3.2 0.00 0.00 0.00 68 1017.6
20260902204517 18 0.0 4.8 0.00 0.00 0.00 68 1017.6
20260902203016 18 0.0 3.2 0.00 0.00 0.00 68 1017.8
20260902201516 18 0.0 6.4 0.00 0.00 0.00 67 1017.9
20260902200017 18 0.0 4.8 0.00 0.00 0.00 67 1018.1
20260902194516 18 0.0 4.8 0.00 0.00 0.00 66 1018.1
20260902193016 18 0.0 3.2 0.00 0.00 0.00 65 1018.5
20260902191516 18 270 1.6 8.0 0.00 0.00 0.00 64 1018.5
20260902190016 18 0.0 3.2 0.00 0.00 0.00 64 1018.6
20260902184516 18 0.0 4.8 0.00 0.00 0.00 64 1018.7
20260902183036 18 135 1.6 4.8 0.00 0.00 0.00 63 1018.5
20260902181517 18 113 3.2 11.3 0.00 0.00 0.00 61 1018.5
20260902180016 19 113 3.2 9.7 0.00 0.00 0.00 59 1018.7
20260902174517 18 180 1.6 6.4 0.00 0.00 0.00 59 1018.6
20260902173016 18 113 1.6 9.7 0.00 0.00 0.00 60 1018.6
20260902171516 17 135 1.6 9.7 0.00 0.00 0.00 63 1018.4
20260902170016 17 113 3.2 8.0 0.00 0.00 0.00 61 1018.3
20260902164516 18 113 3.2 8.0 0.00 0.00 0.00 59 1018.1
20260902163016 17 135 1.6 8.0 0.00 0.00 0.00 60 1018.0
20260902161536 16 90 3.2 8.0 0.00 0.00 0.00 63 1017.9
20260902160016 15 113 3.2 6.4 0.00 0.00 0.00 67 1017.9
20260902154536 13 68 1.6 8.0 0.00 0.00 0.00 75 1017.7
20260902153017 12 90 1.6 4.8 0.00 0.00 0.00 77 1017.6
20260902151516 12 68 1.6 4.8 0.00 0.00 0.00 77 1017.7
20260902150016 12 68 1.6 6.4 0.00 0.00 0.00 78 1017.5
20260902144516 12 68 1.6 4.8 0.00 0.00 0.00 79 1017.3
20260902143016 11 68 1.6 6.4 0.00 0.00 0.00 80 1017.3
20260902141536 11 68 1.6 6.4 0.00 0.00 0.00 81 1017.2
20260902140036 11 0.0 6.4 0.00 0.00 0.00 83 1017.1
20260902134536 11 0.0 4.8 0.00 0.00 0.00 84 1017.0
20260902133016 11 0.0 3.2 0.00 0.00 0.00 84 1016.7
20260902131516 11 0.0 4.8 0.00 0.00 0.00 84 1016.6
20260902130056 11 0.0 4.8 0.00 0.00 0.00 84 1016.6
20260902124516 11 68 1.6 8.0 0.00 0.00 0.00 84 1016.7
20260902123016 11 90 3.2 11.3 0.00 0.00 0.00 85 1016.7
20260902121516 11 68 1.6 8.0 0.00 0.00 0.00 85 1016.8
20260902120016 11 68 1.6 4.8 0.00 0.00 0.00 86 1016.8
20260902114516 11 90 1.6 8.0 0.00 0.00 0.00 86 1016.8
20260902113016 11 68 1.6 8.0 0.00 0.00 0.00 86 1016.8
20260902111516 11 90 1.6 4.8 0.00 0.00 0.00 86 1016.8
20260902110036 11 0.0 6.4 0.00 0.00 0.00 85 1016.9
20260902104516 11 0.0 0.0 0.00 0.00 0.00 85 1016.9
20260902103016 11 0.0 0.0 0.00 0.00 0.00 85 1017.1
20260902101516 11 0.0 3.2 0.00 0.00 0.00 84 1017.1
20260902100016 11 113 1.6 4.8 0.00 0.00 0.00 84 1017.1
20260902094516 11 113 1.6 6.4 0.00 0.00 0.00 83 1017.1
20260902093016 11 113 1.6 6.4 0.00 0.00 0.00 83 1017.1
20260902091516 12 113 3.2 6.4 0.00 0.00 0.00 82 1017.2
20260902090015 12 158 1.6 14.5 0.00 0.00 0.00 82 1017.2
20260902084516 12 113 1.6 4.8 0.00 0.00 0.00 81 1017.0
20260902083016 12 0.0 4.8 0.00 0.00 0.00 81 1016.8
20260902081515 12 135 1.6 4.8 0.00 0.00 0.00 80 1016.7
20260902080016 12 113 1.6 4.8 0.00 0.00 0.00 80 1016.6
20260902074515 12 113 3.2 8.0 0.00 0.00 0.00 80 1016.4
20260902073035 12 113 3.2 8.0 0.00 0.00 0.00 79 1016.6
20260902071516 12 113 4.8 8.0 0.00 0.00 0.00 78 1016.4
20260902070016 12 113 3.2 8.0 0.00 0.00 0.00 78 1016.6
20260902064557 12 113 3.2 9.7 0.00 0.00 0.00 77 1016.7
20260902063017 12 113 3.2 9.7 0.00 0.00 0.00 77 1016.7
20260902061517 13 113 1.6 8.0 0.00 0.00 0.00 76 1016.7
20260902060017 13 158 1.6 8.0 0.00 0.00 0.00 75 1016.7
20260902054517 13 113 1.6 9.7 0.00 0.00 0.00 74 1016.4
20260902053017 13 113 1.6 6.4 0.00 0.00 0.00 72 1016.5
20260902051517 13 113 1.6 4.8 0.00 0.00 0.00 70 1016.5
20260902050017 14 0.0 6.4 0.00 0.00 0.00 70 1016.6
20260902044517 14 0.0 3.2 0.00 0.00 0.00 68 1016.6
20260902043017 15 0.0 3.2 0.00 0.00 0.00 67 1016.5
20260902041516 15 0.0 0.0 0.00 0.00 0.00 66 1016.1
20260902040016 15 0.0 0.0 0.00 0.00 0.00 65 1015.9
20260902034517 15 0.0 0.0 0.00 0.00 0.00 64 1015.7